Location: Forli
(44.2227°N, 12.0407°E)
Time: 19:02:46
(UTC+01:00)

ISS - Pass Details

Date: 21 February 2026
Orbit: 416 x 427 km, 51.6° (Epoch: 6 March)

Event Time Altitude Azimuth Distance (km) Brightness Sun altitude
Exits shadow 04:13:00 12° 53° (NE) 1,391 -0.4 -30.9°
Drops below altitude 10° 04:13:16 10° 54° (NE) 1,496 -0.2 -30.8°
Sets 04:15:23 0° 58° (ENE) 2,361 1.1 -30.5°
